{"data":{"norad_id":61917,"epoch":"2026-05-24T14:29:04.895232Z","epoch_age_seconds":112586,"freshness":"FRESH","line1":"1 61917U 24207F   26144.60352888  .00020021  00000+0  73471-3 0  9995","line2":"2 61917  42.9998 212.8886 0001665 273.9374  86.1288 15.27596193 86336","mean_motion":15.27596193,"eccentricity":0.0001665,"inclination_deg":42.9998,"raan_deg":212.8886,"arg_perigee_deg":273.9374,"mean_anomaly_deg":86.1288,"bstar":0.00073471,"rev_number":8633,"period_min":94.265749456473,"perigee_km":481.85822938871,"apogee_km":484.14298821244,"semimajor_km":6861.1376088006,"source":"CELESTRAK","updated_at":"2026-05-25T13:38:19.480976Z"}}